Regional Weather Roundup
Issued by NWS

Home | Current Version | Previous Version | Text Only | Print | Product List | Glossary Off
Versions: 1 2 3 4 5 6 7 8 9 10 11 12 13 14 15 16 17 18 19 20 21 22 23 24 25 26 27 28 29 30 31 32 33 34 35 36 37 38 39 40 41 42 43 44 45 46 47 48 49 50

000
ASUS43 KTOP 210608
RWRKS

WEATHER ROUNDUP FOR KANSAS
NATIONAL WEATHER SERVICE GOODLAND KS
1200 AM CST SAT JAN 21 2017

NOTE:  "FAIR" INDICATES FEW OR NO CLOUDS BELOW 12,000 FEET WITH NO
SIGNIFICANT WEATHER AND/OR OBSTRUCTIONS TO VISIBILITY.

KSZ001>006-013>018-027>032-041>047-210700-
NORTHWEST KANSAS

CITY           SKY/WX    TMP DP  RH WIND       PRES   REMARKS
GOODLAND       CLEAR     32  30  92 W10       29.46S WCI  24
6HR MIN TEMP:  32; 6HR MAX TEMP:  36;

HAYS           PTCLDY    38  35  89 W12       29.46S WCI  30
HILL CITY      CLOUDY    38  36  92 W9        29.45R
6HR MIN TEMP:  38; 6HR MAX TEMP:  42; 6HR PCP: TRACE;

RUSSELL        CLEAR     36  34  92 W8        29.44R
6HR MIN TEMP:  36; 6HR MAX TEMP:  46; 6HR PCP: TRACE;

$$

KSZ061>065-074>080-084>089-210700-
SOUTHWEST KANSAS

CITY           SKY/WX    TMP DP  RH WIND       PRES   REMARKS
DODGE CITY     CLEAR     32  30  92 W8        29.49S
6HR MIN TEMP:  32; 6HR MAX TEMP:  43;

ELKHART          N/A     32  23  69 S8          N/A
GARDEN CITY    CLEAR     28  27  96 W8        29.50R
6HR MIN TEMP:  27; 6HR MAX TEMP:  39;

GREAT BEND     PTCLDY    37  35  92 W12       29.48R WCI  29
LIBERAL        CLEAR     32  27  80 SW10      29.54R WCI  24
PRATT          CLEAR     35  32  90 NW14      29.48S WCI  25
6HR MIN TEMP:  34; 6HR MAX TEMP:  41;

$$

KSZ066>073-081>083-090>101-210700-
SOUTHEAST KANSAS

CITY           SKY/WX    TMP DP  RH WIND       PRES   REMARKS
CHANUTE        CLEAR     40  36  86 S10       29.46S WCI  33
6HR MIN TEMP:  36; 6HR MAX TEMP:  56;

COFFEYVILLE    CLEAR     52  36  54 S12       29.49R
6HR MIN TEMP:  48; 6HR MAX TEMP:  57;

HUTCHINSON     CLEAR     40  38  93 W9        29.47R
6HR MIN TEMP:  35; 6HR MAX TEMP:  47;

MEDICINE LODGE   N/A     38  33  82 W5        29.51R
NEWTON         CLEAR     39  38  96 SW13      29.46S WCI  31
PARSONS        CLEAR     51  36  56 S8        29.49R
6HR MIN TEMP:  42; 6HR MAX TEMP:  56;

WICHITA INTL   CLEAR     37  36  96 SW9       29.49R
6HR MIN TEMP:  31; 6HR MAX TEMP:  43;

WICHITA JABRA  CLEAR     42  40  92 W14       29.47R
6HR MIN TEMP:  31; 6HR MAX TEMP:  42;

WICHITA MCCONL CLEAR     39  38  96 W10       29.48R WCI  33
WINFIELD       CLEAR     45  40  82 W14       29.50R
6HR MIN TEMP:  39; 6HR MAX TEMP:  45;

$$

KSZ007>012-019>026-033>040-048>060-102>105-210700-
NORTHEAST KANSAS

CITY           SKY/WX    TMP DP  RH WIND       PRES   REMARKS
CONCORDIA      CLOUDY    43  43 100 SW8       29.42S
6HR MIN TEMP:  40; 6HR MAX TEMP:  44; 6HR PCP:  0.09;

EMPORIA        FOG       32  32 100 S9        29.44S VSB 1/4
6HR MIN TEMP:  32; 6HR MAX TEMP:  49;

LAWRENCE       PTCLDY    38  38 100 SE6       29.44F FOG
6HR MIN TEMP:  37; 6HR MAX TEMP:  49; 6HR PCP: TRACE;

MANHATTAN      LGT RAIN  43  41  93 SW8       29.44R FOG
6HR MIN TEMP:  37; 6HR MAX TEMP:  48; 6HR PCP: TRACE;

MARYSVILLE     CLOUDY    43  43 100 SW7       29.42R FOG
OLATHE IND     CLEAR     41  40  96 CALM      29.44S
6HR MIN TEMP:  40; 6HR MAX TEMP:  50; 6HR PCP: TRACE;

OLATHE EXE     FOG       39  39 100 CALM      29.44S VSB 1/4
6HR MIN TEMP:  39; 6HR MAX TEMP:  50; 6HR PCP: TRACE;

SALINA           N/A    N/A N/A N/A MISG        N/A
TOPEKA BILLARD FOG       39  36  89 CALM      29.42F VSB 3/4
6HR MIN TEMP:  37; 6HR MAX TEMP:  51;

TOPEKA FORBES  FOG       39  36  89 SE3       29.42F VSB 1/4
6HR MIN TEMP:  37; 6HR MAX TEMP:  51;

$$




USA.gov is the U.S. government's official web portal to all federal, state and local government web resources and services.